Theta_e
297 297 297 297 297 297 296 296 295 294 294 293 293 292 292 291 291 290 290 290 290 290 290 290 290 290 290 290 290 290 290 290 289 289 289 289 289 289 290 291 292 293
296 295 295 295 295 294 294 294 293 292 292 291 291 290 290 290 289 289 289 289 289 289 289 289 289 289 289 289 289 289 289 289 289 289 289 289 288 288 288 288 288 289
294 293 293 293 292 292 292 291 291 291 290 290 290 290 290 289 289 289 289 289 289 289 289 289 288 289 289 289 289 289 289 288 289 289 288 288 288 288 288 288 288 288
291 291 291 290 290 290 290 289 289 289 289 289 289 289 289 289 289 289 289 289 289 289 289 288 288 288 288 288 288 288 288 288 288 288 288 288 288 288 287 287 287 287
289 289 289 289 289 289 289 289 289 289 289 289 289 289 289 289 289 289 289 289 289 289 289 289 288 288 288 288 288 287 287 287 287 287 287 287 287 287 287 287 287 287
289 289 289 288 288 288 288 288 288 288 288 288 288 288 288 288 288 288 288 288 288 288 288 288 288 288 288 288 288 287 287 287 287 287 287 287 287 287 287 287 287 287
288 288 288 288 288 288 288 288 288 288 288 288 288 288 288 288 288 287 287 287 287 287 287 287 287 287 287 287 287 287 287 287 287 287 287 287 287 287 287 287 287 287
288 288 288 288 288 288 288 288 288 288 288 288 288 288 288 288 287 287 287 287 287 287 287 287 287 287 287 287 287 287 287 287 287 287 287 287 287 287 287 287 287 287
288 288 288 288 288 288 288 288 288 288 288 288 288 288 288 287 287 287 287 287 287 287 287 286 286 287 286 287 287 287 287 287 287 287 287 287 287 287 287 287 287 287
288 288 288 288 288 288 288 288 288 288 288 288 288 288 288 287 287 287 287 287 287 287 286 286 286 286 286 286 286 286 286 287 287 287 287 287 287 287 287 287 287 287
288 289 289 289 289 289 289 288 288 288 288 288 288 288 288 287 287 287 287 286 286 286 286 286 286 286 286 286 286 286 286 286 286 286 286 287 287 287 287 287 287 287
289 289 289 289 289 289 289 289 288 288 288 288 288 288 287 287 286 286 286 286 286 286 286 286 286 285 285 285 285 285 285 285 286 286 286 286 286 286 287 286 287 287
289 289 289 289 289 289 289 289 288 288 288 288 288 287 287 286 286 285 285 285 285 285 285 285 285 285 285 285 285 285 285 285 285 285 285 286 286 286 286 286 286 286
289 289 289 289 289 289 289 289 289 288 288 288 288 287 286 285 285 285 285 285 285 285 285 285 285 285 285 285 285 285 285 285 285 285 285 285 285 285 285 285 285 285
289 289 289 289 289 289 289 289 289 288 288 288 287 286 285 285 284 284 284 284 284 284 284 284 285 285 285 284 284 284 284 284 284 285 284 284 285 285 285 285 284 283
289 289 289 289 289 289 289 289 288 288 288 287 287 285 284 284 284 284 284 284 284 284 284 284 284 284 284 284 284 283 283 284 284 284 284 284 284 284 284 284 283 282
289 289 289 289 289 289 288 288 288 288 287 287 285 284 284 284 284 284 284 284 284 284 284 284 284 284 284 284 283 283 282 282 283 283 283 283 283 282 282 282 281 281
289 289 289 289 289 288 288 287 287 287 286 285 284 284 284 284 283 283 283 284 284 284 284 284 284 284 283 283 283 282 281 280 281 281 281 281 281 280 279 279 279 278
289 289 289 288 288 287 287 287 286 285 284 284 283 283 283 283 283 283 283 284 284 284 284 284 284 283 283 282 282 281 280 279 279 279 279 279 279 278 277 277 276 276
289 288 288 288 287 287 287 286 285 284 283 283 283 283 283 283 283 283 283 283 283 283 283 283 283 282 282 281 281 280 279 278 278 278 277 277 277 276 275 275 275 274
288 288 288 287 287 286 285 284 283 283 283 283 283 283 283 283 283 283 283 283 283 283 283 283 282 281 281 280 280 279 278 277 276 276 276 276 275 275 274 274 274 273
288 287 287 287 286 285 284 283 283 283 282 282 282 282 282 283 283 283 283 283 282 282 282 282 281 280 280 279 278 277 276 275 275 275 275 274 274 274 274 273 273 272
287 287 286 285 284 283 283 283 282 282 282 282 282 282 282 283 283 283 282 282 282 281 280 281 281 280 279 278 277 275 275 274 274 274 274 274 273 273 272 272 271 270
286 286 285 284 283 283 282 282 282 282 282 282 282 282 282 282 282 282 282 281 280 280 279 280 280 279 277 277 276 274 274 273 273 273 273 272 272 271 271 270 270 269
286 285 284 283 282 282 282 282 282 281 281 281 282 282 282 282 281 281 281 280 280 279 278 278 279 278 277 276 275 274 274 273 273 272 271 271 270 270 270 270 270 270
285 284 282 282 282 282 281 281 281 281 281 281 281 281 281 281 281 280 280 280 279 278 278 277 277 277 276 275 275 274 273 273 273 272 270 270 269 269 270 270 270 270
Wind_Speed
3 3 4 4 5 5 5 6 7 7 8 8 9 9 9 10 10 10 10 11 11 11 12 12 13 13 13 13 14 14 15 16 16 16 16 16 16 17 16 16 16 17
3 3 4 4 5 5 5 6 7 8 8 9 9 9 10 10 10 11 11 11 12 13 13 14 15 15 16 16 16 16 16 17 17 18 19 18 19 19 19 19 19 19
3 3 3 4 4 4 5 5 6 7 8 9 10 10 11 12 13 13 14 14 15 15 15 16 16 17 18 18 19 19 20 20 21 21 21 21 21 22 21 22 22 22
4 3 3 3 3 3 3 4 5 6 7 9 10 11 12 13 15 16 16 17 18 19 19 19 19 19 19 19 20 20 20 21 22 23 24 23 23 24 24 24 25 25
3 2 2 2 2 3 4 5 6 7 8 9 10 12 13 14 15 16 17 18 19 20 21 22 23 23 24 24 24 23 23 23 23 24 25 25 25 26 26 27 28 28
2 3 3 4 5 5 7 8 9 10 11 12 13 14 15 16 17 17 18 19 20 21 22 22 23 24 25 26 27 28 28 28 28 28 29 29 28 29 29 30 31 31
4 5 6 7 8 10 11 12 13 14 15 16 16 17 18 18 19 19 20 21 21 22 22 23 24 24 25 27 28 29 30 31 32 33 34 35 34 34 33 33 35 35
7 8 10 11 12 13 15 15 16 17 18 19 19 20 21 21 22 23 23 23 23 24 24 24 25 26 27 29 30 31 32 32 33 35 36 38 39 39 39 39 40 40
11 12 13 15 16 17 18 19 20 21 22 22 23 23 23 24 25 26 27 27 28 28 29 29 29 30 30 31 33 34 35 35 36 37 38 39 40 41 43 43 44 45
13 14 16 17 19 20 21 23 24 24 25 26 26 26 27 27 28 28 29 30 31 32 33 34 35 36 36 37 38 38 39 40 40 41 41 42 43 43 44 45 46 48
15 16 18 19 21 22 24 25 26 27 27 28 28 29 29 30 30 31 31 32 33 35 36 37 38 40 41 42 42 43 44 44 44 45 45 46 46 47 47 47 48 49
18 19 20 22 23 25 27 28 29 29 29 30 30 31 31 31 32 32 33 34 35 36 37 39 40 42 43 44 45 45 46 47 47 48 49 49 50 50 50 50 50 50
21 22 23 25 26 28 30 32 32 33 32 32 32 32 32 33 33 34 35 36 37 38 40 41 42 43 44 45 45 46 47 48 50 51 51 52 52 53 53 53 53 52
23 24 25 27 28 30 32 34 35 36 35 34 34 34 34 34 35 36 37 38 39 40 41 42 43 43 44 45 46 47 48 49 51 52 53 54 55 56 56 57 57 56
25 26 27 28 30 32 34 37 38 37 36 36 35 35 35 36 37 39 40 40 41 42 42 42 43 43 44 44 46 47 48 50 51 53 55 56 57 59 59 59 59 59
27 28 29 30 32 34 37 38 39 38 36 35 35 35 36 38 39 40 41 42 42 42 42 42 43 43 44 45 45 47 49 51 53 54 55 57 59 60 61 62 61 60
28 29 30 32 34 37 39 39 38 37 36 35 35 36 38 39 40 41 42 43 43 43 43 43 44 44 45 46 47 48 49 51 53 55 56 57 58 59 60 60 60 60
29 30 32 34 37 38 39 38 37 36 35 36 37 38 39 40 41 42 42 43 43 43 44 45 46 46 47 47 48 49 48 49 52 54 55 56 56 56 56 56 56 56
30 32 35 37 38 38 37 36 36 35 36 38 39 40 41 41 42 42 43 42 43 43 44 46 47 47 48 48 48 48 47 47 49 51 52 53 53 52 51 51 51 51
33 35 37 37 37 36 36 35 35 36 38 39 39 40 41 42 43 43 43 43 44 45 46 47 47 47 47 47 47 47 46 45 46 48 49 49 49 49 48 48 48 47
34 35 36 36 36 35 35 35 36 38 38 38 39 40 41 42 42 43 43 44 45 46 47 48 47 46 46 46 46 45 44 44 45 46 47 47 47 46 46 45 45 44
32 34 34 34 34 34 35 36 37 38 38 39 40 40 41 41 41 42 43 44 45 46 47 48 47 45 45 45 44 43 42 42 43 44 45 45 45 44 43 43 42 41
32 33 33 33 33 34 35 37 38 38 38 38 40 40 41 41 41 42 43 44 45 45 45 47 47 45 44 44 43 41 40 40 41 42 43 43 43 41 41 41 39 38
32 32 32 32 33 35 36 37 37 37 38 38 39 40 40 41 42 43 44 44 44 44 44 45 46 44 42 42 41 38 37 38 39 40 40 40 40 39 39 39 39 37
32 32 33 33 34 35 36 36 36 36 37 38 38 39 40 41 42 43 44 44 43 43 42 42 44 43 41 40 40 37 35 35 36 37 37 37 38 38 38 38 38 37
31 32 33 34 35 35 35 35 35 36 37 37 38 39 40 41 42 43 44 44 42 42 41 40 41 42 40 38 38 35 33 32 33 34 35 36 36 37 38 38 38 37
Wind_Direction
320 323 326 330 333 339 343 341 341 340 341 342 341 343 344 344 346 346 346 347 346 344 343 341 340 338 338 339 339 338 338 338 338 339 340 340 338 336 335 331 325 318
297 304 310 314 319 326 327 329 333 335 337 339 341 340 339 337 336 336 337 337 336 335 334 334 333 332 332 332 333 333 332 331 329 329 330 332 331 330 330 329 328 327
262 267 280 289 293 305 313 321 323 323 325 326 327 326 325 326 327 328 329 329 329 329 328 328 328 327 327 327 327 327 327 327 325 324 324 326 325 324 325 324 322 322
228 234 247 265 279 297 306 309 309 311 315 316 316 316 315 316 316 316 318 318 320 320 321 323 324 325 325 324 324 323 323 323 322 320 318 319 320 319 320 319 318 317
218 236 260 283 297 305 300 298 302 306 311 312 311 311 310 311 310 310 310 310 310 311 312 313 315 318 319 319 320 321 321 320 318 317 314 313 314 313 314 314 313 312
260 283 304 312 314 317 314 315 317 318 318 316 314 313 313 312 312 311 310 309 309 309 309 309 310 312 313 313 314 315 316 316 315 314 312 310 309 308 309 309 307 307
304 317 327 331 332 332 332 332 330 327 325 322 321 321 319 317 316 315 314 312 311 311 310 310 310 311 312 311 311 310 311 311 311 310 309 309 308 306 305 305 303 302
338 341 341 338 337 336 334 334 331 328 325 322 321 320 318 317 316 315 315 313 312 311 310 310 309 309 309 309 308 307 306 306 306 306 305 305 305 305 304 304 302 301
341 339 337 334 332 331 330 330 328 326 324 321 320 318 317 316 316 315 314 314 313 313 312 311 310 309 308 307 306 305 304 303 303 302 302 302 301 301 301 302 301 301
329 327 327 326 326 327 327 327 325 323 322 320 318 317 316 315 315 315 314 314 314 314 313 313 313 312 311 310 308 307 306 304 303 302 301 300 300 299 299 298 298 298
318 318 320 322 323 326 327 326 325 323 320 319 317 315 314 314 313 313 313 313 313 313 313 313 313 312 312 311 310 309 308 307 306 304 303 301 300 299 298 297 296 295
313 314 317 319 322 324 326 326 324 322 319 317 315 314 313 312 312 312 312 312 311 312 311 311 311 310 310 309 309 309 309 308 307 305 304 303 301 300 299 297 296 294
311 312 314 317 319 322 323 323 322 319 317 315 313 312 311 311 311 311 311 311 310 310 309 309 309 308 308 308 308 308 308 307 306 306 305 304 303 302 300 299 298 296
307 307 309 311 315 317 319 318 318 316 314 312 311 311 310 310 310 309 308 308 307 307 307 307 306 306 306 306 307 307 307 306 305 305 304 303 302 301 300 299 298 296
300 302 304 307 310 312 314 313 313 312 311 310 309 308 308 308 307 306 305 304 304 304 304 304 304 304 305 305 306 305 305 304 303 302 302 301 300 299 298 297 296 295
295 298 300 302 305 307 308 309 309 308 307 306 305 305 305 304 303 303 303 303 303 303 303 303 303 303 304 305 305 305 304 303 302 301 300 299 299 298 297 295 294 293
291 293 295 298 300 303 304 306 306 306 305 304 303 303 302 301 301 302 302 303 304 304 304 304 304 305 305 305 305 305 304 303 302 301 300 299 297 296 295 294 293 293
287 289 292 295 298 301 303 304 304 304 303 302 302 301 301 301 302 302 303 304 304 304 304 305 305 306 307 307 307 307 306 305 304 302 301 299 297 296 296 295 295 294
287 290 293 296 299 301 302 302 302 301 301 301 301 301 302 302 304 304 305 305 305 305 306 306 307 307 308 309 308 308 307 306 304 302 300 299 298 298 297 296 296 295
290 292 295 297 299 300 300 300 300 299 300 301 301 302 303 304 305 306 306 306 307 308 307 307 307 308 309 309 309 309 309 307 305 302 300 299 298 298 297 297 297 297
291 293 295 298 299 298 298 298 299 300 301 302 303 304 305 306 306 307 307 308 309 309 308 308 309 310 311 312 312 312 311 309 305 302 300 299 298 298 298 298 299 300
292 294 296 297 296 296 297 298 300 301 302 304 305 306 306 306 307 308 308 309 309 309 309 309 310 313 314 315 315 314 312 309 306 303 301 299 298 299 299 300 301 302
295 296 296 295 295 296 298 300 302 303 304 306 306 306 307 308 308 309 309 309 310 310 310 311 313 317 318 317 316 315 312 308 305 302 300 299 299 300 301 302 302 301
297 296 295 294 296 298 300 302 303 305 306 307 307 307 308 309 310 310 310 310 310 311 312 314 316 319 320 317 316 314 310 306 303 300 299 299 300 301 301 301 301 301
296 295 295 296 298 301 302 303 305 306 308 308 309 309 310 310 311 310 310 311 312 313 315 317 319 320 319 317 315 312 308 304 301 300 299 299 300 301 302 302 303 306
294 293 295 297 300 302 303 305 307 308 309 309 310 311 311 311 311 311 311 311 313 315 318 320 320 319 318 316 313 310 307 304 301 300 301 301 302 304 305 306 307 309